This is the latest recevied weather packets stored in our database for station/object N2XP-3. If no packets are shown the sender has not sent any weather packets the latest 10 day(s).
| Time | Temp. | Humidity | Pressure | Rain* | Wind** | Luminosity | Snow |
|---|---|---|---|---|---|---|---|
| 1777474750 | 17.78° C | 49% | 1012.2 hPa | 0 mm | 0.45 m/s, 215° | - | - |
| 1777474677 | 17.78° C | 51% | 1012.2 hPa | 0 mm | 0 m/s | - | - |
| 1777474436 | 17.78° C | 51% | 1012.2 hPa | 0 mm | 0 m/s | - | - |
| 1777473532 | 17.78° C | 51% | 1012.2 hPa | 0 mm | 0 m/s | - | - |
| 1777472928 | 17.78° C | 51% | 1012.3 hPa | 0 mm | 0 m/s | - | - |
| 1777472625 | 17.78° C | 51% | 1012.3 hPa | 0 mm | 1.34 m/s, 256° | - | - |
| 1777472315 | 17.78° C | 51% | 1012.3 hPa | 0 mm | 0.45 m/s, 217° | - | - |
| 1777472016 | 17.78° C | 50% | 1012.3 hPa | 0 mm | 0 m/s | - | - |
| 1777471717 | 18.33° C | 49% | 1012.2 hPa | 0 mm | 0.45 m/s, 291° | - | - |
| 1777471412 | 18.33° C | 48% | 1012.3 hPa | 0 mm | 1.34 m/s, 295° | - | - |
| 1777471353 | 18.89° C | 48% | 1012.4 hPa | 0 mm | 0.89 m/s, 314° | - | - |
| 1777471112 | 18.89° C | 48% | 1012.4 hPa | 0 mm | 0.89 m/s, 314° | - | - |
| 1777470497 | 19.44° C | 47% | 1012.4 hPa | 0 mm | 1.34 m/s, 267° | - | - |
| 1777470127 | 20° C | 46% | 1012.4 hPa | 0 mm | 0.45 m/s, 239° | - | - |
| 1777469898 | 20° C | 46% | 1012.4 hPa | 0 mm | 0.45 m/s, 239° | - | - |
| 1777469329 | 20.56° C | 46% | 1012.5 hPa | 0 mm | 0.45 m/s, 239° | - | - |
| 1777469293 | 20.56° C | 46% | 1012.5 hPa | 0 mm | 0.45 m/s, 239° | - | - |
| 1777468990 | 20.56° C | 45% | 1012.7 hPa | 0 mm | 1.34 m/s, 255° | - | - |
| 1777468858 | 20° C | 46% | 1012.8 hPa | 0 mm | 1.34 m/s, 288° | - | - |
| 1777468687 | 20° C | 46% | 1012.8 hPa | 0 mm | 1.34 m/s, 288° | - | - |
| 1777468387 | 20° C | 46% | 1012.8 hPa | 0 mm | 0.45 m/s, 288° | - | - |
| 1777468052 | 19.44° C | 48% | 1012.9 hPa | 0 mm | 0 m/s | - | - |
| 1777467785 | 19.44° C | 48% | 1012.9 hPa | 0 mm | 0 m/s | - | - |
| 1777467482 | 18.89° C | 49% | 1012.9 hPa | 0 mm | 0 m/s | - | - |
| 1777467183 | 18.33° C | 50% | 1012.9 hPa | 0 mm | 0 m/s | - | - |
* Rain latest hour (hover to see other rain measurements)
** Current wind speed in m/s (hover to see current wind gust speed)